Tunica, MS

8:26 AM CDT on March 27, 2017 (GMT -0500)
Tunica

Weather History for KUTA - September, 2012

Change the Weather History Date:

Sunday, September 2, 2012

  Actual Average (KAWM) Record (KAWM)
Temperature  
Mean Temperature 84 °F -  
Max Temperature 95 °F 88 °F 96 °F (1975)
Min Temperature 73 °F 69 °F 52 °F (1967)
Cooling Degree Days 19    
Growing Degree Days 34 (Base 50)    
Moisture  
Dew Point 73 °F    
Average Humidity 72    
Maximum Humidity 89    
Minimum Humidity 49    
Precipitation  
Precipitation 0.00 in - - ()
Sea Level Pressure  
Sea Level Pressure 29.90 in    
Wind  
Wind Speed 12 mph (SW)    
Max Wind Speed 18 mph    
Max Gust Speed 28 mph    
Visibility 10 miles    
Events      
Averages and records for this station are not official NWS values.
T = Trace of Precipitation, MM = Missing Value Source: NWS Daily Summary

Daily Weather History Graph

Daily Weather History Graph

Search for Another Location

Airport or City:

Trip Planner

Search our weather history database for the weather conditions in past years. The results will help you decide how hot, cold, wet, or windy it might be!

Date:

Astronomy

Sep. 02, 2012 Rise Set
Actual Time 6:35 AM CDT 7:25 PM CDT
Civil Twilight 6:09 AM CDT 7:51 PM CDT
Nautical Twilight 5:39 AM CDT 8:21 PM CDT
Astronomical Twilight 5:08 AM CDT 8:52 PM CDT
Moon 8:22 PM CDT (9/2) 8:35 AM CDT (9/2)
Length of Visible Light 13h 41m
Length of Day
12h 50m
Waning Gibbous, 95% of the Moon is Illuminated
Sep 2
Waning Gibbous
Sep 8
Last Quarter
Sep 15
New
Sep 22
First Quarter
Sep 29
Full

Hourly Weather History & Observations

Time (CDT) Temp. Heat Index Dew Point Humidity Pressure Visibility Wind Dir Wind Speed Gust Speed Precip Events Conditions
12:15 AM 73.4 °F - 69.8 °F 88% 29.94 in 10.0 mi South 9.2 mph - N/A   Clear
12:35 AM 75.2 °F - 69.8 °F 83% 29.94 in 10.0 mi South 8.1 mph - N/A   Clear
12:55 AM 73.4 °F - 69.8 °F 88% 29.93 in 10.0 mi South 11.5 mph - N/A   Clear
1:15 AM 77.0 °F - 73.4 °F 89% 29.93 in 10.0 mi South 12.7 mph - N/A   Clear
1:35 AM 77.0 °F - 73.4 °F 89% 29.93 in 10.0 mi South 10.4 mph - N/A   Clear
1:55 AM 77.0 °F - 73.4 °F 89% 29.92 in 10.0 mi South 12.7 mph 19.6 mph N/A   Clear
2:15 AM 77.0 °F - 73.4 °F 89% 29.92 in 10.0 mi South 12.7 mph - N/A   Clear
2:35 AM 77.0 °F - 73.4 °F 89% 29.91 in 10.0 mi South 16.1 mph - N/A   Clear
2:55 AM 77.0 °F - 73.4 °F 89% 29.92 in 10.0 mi South 13.8 mph - N/A   Clear
3:15 AM 77.0 °F - 73.4 °F 89% 29.92 in 10.0 mi South 15.0 mph 19.6 mph N/A   Clear
3:35 AM 77.0 °F - 73.4 °F 89% 29.92 in 10.0 mi South 12.7 mph - N/A   Scattered Clouds
3:55 AM 77.0 °F - 73.4 °F 89% 29.92 in 10.0 mi South 13.8 mph 18.4 mph N/A   Clear
4:15 AM 77.0 °F - 73.4 °F 89% 29.92 in 10.0 mi SSW 12.7 mph - N/A   Clear
4:35 AM 77.0 °F - 73.4 °F 89% 29.92 in 10.0 mi SSW 11.5 mph - N/A   Clear
4:55 AM 77.0 °F - 73.4 °F 89% 29.92 in 10.0 mi SSW 11.5 mph - N/A   Clear
5:15 AM 77.0 °F - 73.4 °F 89% 29.93 in 10.0 mi SSW 10.4 mph - N/A   Scattered Clouds
5:35 AM 77.0 °F - 73.4 °F 89% 29.93 in 10.0 mi SSW 8.1 mph - N/A   Mostly Cloudy
5:55 AM 77.0 °F - 73.4 °F 89% 29.93 in 10.0 mi South 9.2 mph - N/A   Mostly Cloudy
6:15 AM 77.0 °F - 73.4 °F 89% 29.93 in 10.0 mi SSW 8.1 mph - N/A   Mostly Cloudy
6:35 AM 77.0 °F - 73.4 °F 89% 29.93 in 10.0 mi SSW 8.1 mph - N/A   Scattered Clouds
6:55 AM 77.0 °F - 73.4 °F 89% 29.94 in 10.0 mi SSW 10.4 mph - N/A   Mostly Cloudy
7:15 AM 77.0 °F - 73.4 °F 89% 29.94 in 10.0 mi SSW 11.5 mph - N/A   Mostly Cloudy
7:35 AM 77.0 °F - 73.4 °F 89% 29.94 in 10.0 mi SSW 12.7 mph 25.3 mph N/A   Mostly Cloudy
7:55 AM 77.0 °F - 73.4 °F 89% 29.95 in 10.0 mi SSW 15.0 mph - N/A   Mostly Cloudy
8:15 AM 78.8 °F - 73.4 °F 83% 29.95 in 10.0 mi SSW 17.3 mph 21.9 mph N/A   Mostly Cloudy
8:35 AM 78.8 °F - 73.4 °F 83% 29.95 in 10.0 mi SW 15.0 mph 21.9 mph N/A   Mostly Cloudy
8:55 AM 78.8 °F - 73.4 °F 83% 29.96 in 10.0 mi SW 13.8 mph 18.4 mph N/A   Overcast
9:15 AM 80.6 °F 85.4 °F 73.4 °F 79% 29.96 in 10.0 mi SW 15.0 mph - N/A   Overcast
9:35 AM 80.6 °F 85.4 °F 73.4 °F 79% 29.96 in 10.0 mi SW 13.8 mph - N/A   Overcast
9:55 AM 80.6 °F 85.4 °F 73.4 °F 79% 29.96 in 10.0 mi SW 16.1 mph 19.6 mph N/A   Overcast
10:15 AM 82.4 °F 88.2 °F 73.4 °F 74% 29.96 in 10.0 mi SW 13.8 mph 17.3 mph N/A   Mostly Cloudy
10:35 AM 82.4 °F 88.2 °F 73.4 °F 74% 29.96 in 10.0 mi SW 12.7 mph - N/A   Mostly Cloudy
10:55 AM 86.0 °F 93.4 °F 73.4 °F 66% 29.96 in 10.0 mi SW 12.7 mph 19.6 mph N/A   Mostly Cloudy
11:15 AM 86.0 °F 93.4 °F 73.4 °F 66% 29.95 in 10.0 mi SW 15.0 mph 19.6 mph N/A   Scattered Clouds
11:35 AM 86.0 °F 93.4 °F 73.4 °F 66% 29.95 in 10.0 mi SW 10.4 mph 16.1 mph N/A   Scattered Clouds
11:55 AM 87.8 °F 95.6 °F 73.4 °F 62% 29.94 in 10.0 mi SW 15.0 mph 20.7 mph N/A   Scattered Clouds
12:15 PM 89.6 °F 98.2 °F 73.4 °F 59% 29.93 in 10.0 mi SW 16.1 mph 21.9 mph N/A   Clear
12:35 PM 89.6 °F 98.2 °F 73.4 °F 59% 29.93 in 10.0 mi SSW 17.3 mph 21.9 mph N/A   Scattered Clouds
12:55 PM 89.6 °F 98.2 °F 73.4 °F 59% 29.92 in 10.0 mi SW 17.3 mph 24.2 mph N/A   Scattered Clouds
1:15 PM 91.4 °F 100.1 °F 73.4 °F 55% 29.91 in 10.0 mi SW 18.4 mph 27.6 mph N/A   Scattered Clouds
1:35 PM 91.4 °F 100.1 °F 73.4 °F 55% 29.91 in 10.0 mi SW 15.0 mph 21.9 mph N/A   Scattered Clouds
1:55 PM 91.4 °F 100.1 °F 73.4 °F 55% 29.90 in 10.0 mi WSW 15.0 mph 20.7 mph N/A   Scattered Clouds
2:15 PM 91.4 °F 100.1 °F 73.4 °F 55% 29.90 in 10.0 mi WSW 11.5 mph 23.0 mph N/A   Scattered Clouds
2:35 PM 93.2 °F 102.4 °F 73.4 °F 52% 29.89 in 10.0 mi SW 16.1 mph 24.2 mph N/A   Scattered Clouds
2:55 PM 93.2 °F 102.4 °F 73.4 °F 52% 29.88 in 10.0 mi SW 16.1 mph 19.6 mph N/A   Scattered Clouds
3:15 PM 93.2 °F 102.4 °F 73.4 °F 52% 29.87 in 10.0 mi SW 17.3 mph 21.9 mph N/A   Scattered Clouds
3:35 PM 95.0 °F 104.5 °F 73.4 °F 49% 29.86 in 10.0 mi SW 15.0 mph 20.7 mph N/A   Scattered Clouds
3:55 PM 95.0 °F 104.5 °F 73.4 °F 49% 29.86 in 10.0 mi SW 17.3 mph - N/A   Clear
4:15 PM 95.0 °F 104.5 °F 73.4 °F 49% 29.86 in 10.0 mi WSW 11.5 mph - N/A   Scattered Clouds
4:35 PM 95.0 °F 104.5 °F 73.4 °F 49% 29.86 in 10.0 mi WSW 15.0 mph 19.6 mph N/A   Scattered Clouds
4:55 PM 93.2 °F 102.4 °F 73.4 °F 52% 29.85 in 10.0 mi WSW 16.1 mph - N/A   Scattered Clouds
5:15 PM 93.2 °F 102.4 °F 73.4 °F 52% 29.85 in 10.0 mi SW 18.4 mph - N/A   Clear
5:35 PM 93.2 °F 102.4 °F 73.4 °F 52% 29.84 in 10.0 mi WSW 13.8 mph 18.4 mph N/A   Clear
5:55 PM 91.4 °F 100.1 °F 73.4 °F 55% 29.84 in 10.0 mi WSW 11.5 mph - N/A   Clear
6:15 PM 91.4 °F 100.1 °F 73.4 °F 55% 29.84 in 10.0 mi WSW 15.0 mph 19.6 mph N/A   Clear
6:35 PM 91.4 °F 100.1 °F 73.4 °F 55% 29.83 in 10.0 mi SW 12.7 mph 17.3 mph N/A   Clear
6:55 PM 89.6 °F 98.2 °F 73.4 °F 59% 29.83 in 10.0 mi WSW 11.5 mph - N/A   Clear
7:15 PM 89.6 °F 98.2 °F 73.4 °F 59% 29.82 in 10.0 mi SW 9.2 mph - N/A   Clear
7:35 PM 87.8 °F 95.6 °F 73.4 °F 62% 29.82 in 10.0 mi SW 8.1 mph - N/A   Scattered Clouds
7:55 PM 87.8 °F 95.6 °F 73.4 °F 62% 29.83 in 10.0 mi SW 5.8 mph - N/A   Mostly Cloudy
8:15 PM 87.8 °F 95.6 °F 73.4 °F 62% 29.83 in 10.0 mi SW 8.1 mph - N/A   Scattered Clouds
8:35 PM 86.0 °F 93.4 °F 73.4 °F 66% 29.84 in 10.0 mi SW 6.9 mph - N/A   Clear
8:55 PM 86.0 °F 93.4 °F 73.4 °F 66% 29.84 in 10.0 mi SW 8.1 mph - N/A   Clear
9:15 PM 86.0 °F 93.4 °F 73.4 °F 66% 29.85 in 10.0 mi SW 9.2 mph - N/A   Clear
9:35 PM 86.0 °F 93.4 °F 73.4 °F 66% 29.84 in 10.0 mi SW 8.1 mph - N/A   Scattered Clouds
9:55 PM 84.2 °F 90.9 °F 73.4 °F 70% 29.85 in 10.0 mi SW 9.2 mph - N/A   Scattered Clouds
10:15 PM 84.2 °F 90.9 °F 73.4 °F 70% 29.86 in 10.0 mi SW 8.1 mph - N/A   Scattered Clouds
10:35 PM 84.2 °F 90.9 °F 73.4 °F 70% 29.86 in 10.0 mi SW 10.4 mph - N/A   Scattered Clouds
10:55 PM 84.2 °F 90.9 °F 73.4 °F 70% 29.88 in 10.0 mi NW 6.9 mph - N/A   Scattered Clouds
11:15 PM 84.2 °F 92.3 °F 75.2 °F 74% 29.89 in 10.0 mi NW 8.1 mph - N/A   Mostly Cloudy